| time (UTC) | temp F | wind direction | speed knots | gust knots | rain 1hr in | rain 24hr in | rain mn in | humidity % | barometer mb |
| 20260509082504 | 68 | 248 | 0.0 | 0.9 | 0.00 | 0.00 | 0.00 | 20 | 1020.9 |
| 20260509082004 | 68 | 239 | 0.0 | 0.0 | 0.00 | 0.00 | 0.00 | 20 | 1020.9 |
| 20260509081504 | 68 | 236 | 0.0 | 0.0 | 0.00 | 0.00 | 0.00 | 20 | 1020.9 |
| 20260509081005 | 68 | 240 | 0.0 | 0.9 | 0.00 | 0.00 | 0.00 | 20 | 1021.0 |
| 20260509075503 | 67 | 227 | 0.0 | 0.0 | 0.00 | 0.00 | 0.00 | 21 | 1020.9 |
| 20260509075004 | 67 | 227 | 0.0 | 1.7 | 0.00 | 0.00 | 0.00 | 21 | 1020.9 |
| 20260509074504 | 67 | 227 | 0.0 | 0.0 | 0.00 | 0.00 | 0.00 | 20 | 1021.1 |
| 20260509074004 | 68 | 227 | 0.0 | 0.0 | 0.00 | 0.00 | 0.00 | 20 | 1021.0 |
| 20260509073505 | 68 | 227 | 0.0 | 0.0 | 0.00 | 0.00 | 0.00 | 21 | 1021.0 |
| 20260509073004 | 68 | 227 | 0.0 | 0.0 | 0.00 | 0.00 | 0.00 | 21 | 1021.0 |
| 20260509072504 | 68 | 232 | 0.0 | 0.0 | 0.00 | 0.00 | 0.00 | 21 | 1021.0 |
| 20260509072003 | 68 | 229 | 0.0 | 0.0 | 0.00 | 0.00 | 0.00 | 21 | 1021.1 |
| 20260509071504 | 68 | 228 | 0.0 | 0.0 | 0.00 | 0.00 | 0.00 | 21 | 1021.1 |
| 20260509071003 | 67 | 229 | 0.0 | 0.0 | 0.00 | 0.00 | 0.00 | 21 | 1021.1 |
| 20260509070504 | 68 | 229 | 0.0 | 0.0 | 0.00 | 0.00 | 0.00 | 21 | 1021.2 |
| 20260509070004 | 67 | 229 | 0.0 | 0.0 | 0.00 | 0.00 | 0.00 | 22 | 1021.2 |
| 20260509065504 | 67 | 229 | 0.0 | 0.0 | 0.00 | 0.00 | 0.00 | 22 | 1021.2 |
| 20260509065004 | 67 | 229 | 0.0 | 0.0 | 0.00 | 0.00 | 0.00 | 23 | 1021.2 |
| 20260509064503 | 66 | 228 | 0.0 | 0.0 | 0.00 | 0.00 | 0.00 | 23 | 1021.3 |
| 20260509064003 | 67 | 229 | 0.0 | 0.0 | 0.00 | 0.00 | 0.00 | 23 | 1021.3 |
| 20260509062504 | 67 | 225 | 0.0 | 0.0 | 0.00 | 0.00 | 0.00 | 24 | 1021.2 |
| 20260509062004 | 66 | 223 | 0.0 | 0.0 | 0.00 | 0.00 | 0.00 | 24 | 1021.2 |
| 20260509061503 | 66 | 201 | 0.0 | 0.0 | 0.00 | 0.00 | 0.00 | 24 | 1021.1 |
| 20260509060503 | 66 | 198 | 0.0 | 0.0 | 0.00 | 0.00 | 0.00 | 25 | 1021.2 |
| 20260509060005 | 66 | 200 | 0.0 | 0.0 | 0.00 | 0.00 | 0.00 | 24 | 1021.1 |
| 20260509055504 | 66 | 259 | 0.0 | 0.0 | 0.00 | 0.00 | 0.00 | 24 | 1021.2 |
| 20260509055005 | 66 | 259 | 0.0 | 0.0 | 0.00 | 0.00 | 0.00 | 24 | 1021.2 |
| 20260509054503 | 67 | 259 | 0.0 | 0.0 | 0.00 | 0.00 | 0.00 | 24 | 1021.2 |
| 20260509054004 | 67 | 260 | 0.0 | 0.0 | 0.00 | 0.00 | 0.00 | 24 | 1021.2 |
| 20260509053504 | 68 | 260 | 0.0 | 0.0 | 0.00 | 0.00 | 0.00 | 24 | 1021.2 |
| 20260509052504 | 69 | 260 | 0.0 | 0.0 | 0.00 | 0.00 | 0.00 | 24 | 1021.2 |
| 20260509052005 | 69 | 260 | 0.0 | 0.0 | 0.00 | 0.00 | 0.00 | 23 | 1021.2 |
| 20260509051504 | 69 | 260 | 0.0 | 0.0 | 0.00 | 0.00 | 0.00 | 23 | 1021.1 |
| 20260509051003 | 69 | 260 | 0.0 | 0.0 | 0.00 | 0.00 | 0.00 | 22 | 1021.0 |
| 20260509050504 | 70 | 261 | 0.0 | 0.0 | 0.00 | 0.00 | 0.00 | 23 | 1021.0 |
| 20260509045503 | 71 | 261 | 0.0 | 0.0 | 0.00 | 0.00 | 0.00 | 23 | 1021.3 |
| 20260509045004 | 71 | 261 | 0.0 | 0.0 | 0.00 | 0.00 | 0.00 | 25 | 1021.2 |
| 20260509044504 | 72 | 261 | 0.0 | 0.0 | 0.00 | 0.00 | 0.00 | 26 | 1021.2 |
| 20260509043503 | 72 | 261 | 0.0 | 0.0 | 0.00 | 0.00 | 0.00 | 24 | 1021.1 |
| 20260509043004 | 73 | 261 | 0.0 | 0.0 | 0.00 | 0.00 | 0.00 | 24 | 1021.0 |
| 20260509042504 | 73 | 261 | 0.0 | 0.0 | 0.00 | 0.00 | 0.00 | 24 | 1020.8 |
| 20260509042004 | 73 | 261 | 0.0 | 0.0 | 0.00 | 0.00 | 0.00 | 24 | 1020.8 |
| 20260509041505 | 74 | 262 | 0.0 | 0.0 | 0.00 | 0.00 | 0.00 | 24 | 1020.7 |
| 20260509041004 | 74 | 263 | 0.0 | 0.0 | 0.00 | 0.00 | 0.00 | 24 | 1020.8 |
| 20260509040503 | 75 | 263 | 0.0 | 0.0 | 0.00 | 0.00 | 0.00 | 25 | 1020.7 |
| 20260509035504 | 77 | 288 | 0.0 | 0.0 | 0.00 | 0.00 | 0.00 | 24 | 1020.7 |
| 20260509035003 | 77 | 11 | 0.0 | 0.0 | 0.00 | 0.00 | 0.00 | 24 | 1020.7 |
| 20260509034504 | 77 | 13 | 0.0 | 0.0 | 0.00 | 0.00 | 0.00 | 25 | 1020.6 |
| 20260509034004 | 77 | 325 | 0.0 | 0.0 | 0.00 | 0.00 | 0.00 | 25 | 1020.6 |
| 20260509033503 | 78 | 300 | 0.0 | 0.0 | 0.00 | 0.00 | 0.00 | 25 | 1020.4 |
| 20260509033004 | 78 | 275 | 0.0 | 0.0 | 0.00 | 0.00 | 0.00 | 25 | 1020.3 |
| 20260509032504 | 78 | 250 | 0.0 | 0.0 | 0.00 | 0.00 | 0.00 | 25 | 1020.3 |
| 20260509032004 | 79 | 240 | 0.0 | 0.0 | 0.00 | 0.00 | 0.00 | 26 | 1020.3 |
| 20260509030505 | 79 | 214 | 0.0 | 0.0 | 0.00 | 0.00 | 0.00 | 26 | 1020.1 |
| 20260509025503 | 80 | 222 | 0.0 | 0.0 | 0.00 | 0.00 | 0.00 | 25 | 1019.9 |
| 20260509025003 | 80 | 227 | 0.0 | 0.0 | 0.00 | 0.00 | 0.00 | 25 | 1019.9 |
| 20260509024503 | 81 | 240 | 0.0 | 0.0 | 0.00 | 0.00 | 0.00 | 24 | 1019.8 |
| 20260509024004 | 81 | 224 | 0.0 | 5.2 | 0.00 | 0.00 | 0.00 | 24 | 1019.8 |
| 20260509023504 | 81 | 223 | 0.0 | 5.2 | 0.00 | 0.00 | 0.00 | 24 | 1019.8 |
| 20260509023004 | 82 | 230 | 0.0 | 0.0 | 0.00 | 0.00 | 0.00 | 24 | 1019.8 |
| 20260509022504 | 82 | 216 | 0.0 | 0.0 | 0.00 | 0.00 | 0.00 | 24 | 1019.7 |
| 20260509022003 | 83 | 213 | 0.0 | 8.7 | 0.00 | 0.00 | 0.00 | 24 | 1019.7 |
| 20260509021503 | 83 | 211 | 6.1 | 11.3 | 0.00 | 0.00 | 0.00 | 23 | 1019.7 |
| 20260509021003 | 83 | 215 | 6.1 | 10.4 | 0.00 | 0.00 | 0.00 | 23 | 1019.8 |
| 20260509020503 | 84 | 204 | 8.7 | 13.0 | 0.00 | 0.00 | 0.00 | 23 | 1019.8 |
| 20260509020004 | 84 | 216 | 7.8 | 13.0 | 0.00 | 0.00 | 0.00 | 23 | 1019.8 |
| 20260509015504 | 85 | 214 | 7.8 | 13.0 | 0.00 | 0.00 | 0.00 | 22 | 1019.7 |
| 20260509015004 | 85 | 208 | 7.8 | 13.9 | 0.00 | 0.00 | 0.00 | 21 | 1019.7 |
| 20260509014504 | 86 | 206 | 8.7 | 12.2 | 0.00 | 0.00 | 0.00 | 20 | 1019.7 |
| 20260509014004 | 86 | 211 | 7.8 | 12.2 | 0.00 | 0.00 | 0.00 | 18 | 1019.7 |
| 20260509013503 | 87 | 224 | 8.7 | 14.8 | 0.00 | 0.00 | 0.00 | 18 | 1019.7 |
| 20260509013004 | 87 | 209 | 7.8 | 11.3 | 0.00 | 0.00 | 0.00 | 16 | 1019.8 |
| 20260509012504 | 87 | 216 | 7.8 | 12.2 | 0.00 | 0.00 | 0.00 | 14 | 1019.7 |
| 20260509012003 | 87 | 217 | 8.7 | 13.0 | 0.00 | 0.00 | 0.00 | 15 | 1019.8 |
| 20260509011504 | 88 | 216 | 7.8 | 12.2 | 0.00 | 0.00 | 0.00 | 16 | 1019.8 |
| 20260509011004 | 88 | 201 | 8.7 | 15.6 | 0.00 | 0.00 | 0.00 | 16 | 1019.6 |
| 20260509010504 | 88 | 206 | 8.7 | 12.2 | 0.00 | 0.00 | 0.00 | 14 | 1019.8 |
| 20260509010003 | 88 | 215 | 9.6 | 13.0 | 0.00 | 0.00 | 0.00 | 14 | 1019.8 |
| 20260509005504 | 89 | 216 | 7.8 | 11.3 | 0.00 | 0.00 | 0.00 | 13 | 1019.7 |
| 20260509005004 | 89 | 215 | 9.6 | 14.8 | 0.00 | 0.00 | 0.00 | 12 | 1019.8 |
| 20260509004003 | 89 | 207 | 10.4 | 14.8 | 0.00 | 0.00 | 0.00 | 13 | 1020.1 |
| 20260509003504 | 90 | 202 | 7.8 | 13.0 | 0.00 | 0.00 | 0.00 | 12 | 1020.1 |
| 20260509003003 | 90 | 210 | 8.7 | 12.2 | 0.00 | 0.00 | 0.00 | 12 | 1020.2 |
| 20260509002503 | 90 | 210 | 8.7 | 13.9 | 0.00 | 0.00 | 0.00 | 11 | 1020.0 |
| 20260509002003 | 90 | 203 | 10.4 | 13.9 | 0.00 | 0.00 | 0.00 | 11 | 1020.2 |
| 20260509001504 | 90 | 223 | 7.8 | 13.0 | 0.00 | 0.00 | 0.00 | 11 | 1020.2 |
| 20260509000504 | 91 | 210 | 7.8 | 13.0 | 0.00 | 0.00 | 0.00 | 11 | 1020.4 |
| 20260509000003 | 91 | 215 | 7.8 | 13.0 | 0.00 | 0.00 | 0.00 | 10 | 1020.3 |
| 20260508235503 | 91 | 191 | 8.7 | 13.9 | 0.00 | 0.00 | 0.00 | 10 | 1020.3 |
| 20260508235004 | 91 | 214 | 7.8 | 12.2 | 0.00 | 0.00 | 0.00 | 10 | 1020.4 |
| 20260508234504 | 91 | 198 | 8.7 | 12.2 | 0.00 | 0.00 | 0.00 | 9 | 1020.3 |
| 20260508234003 | 92 | 223 | 7.8 | 13.9 | 0.00 | 0.00 | 0.00 | 10 | 1020.4 |
| 20260508233503 | 91 | 209 | 6.1 | 12.2 | 0.00 | 0.00 | 0.00 | 10 | 1020.4 |
| 20260508232503 | 92 | 181 | 11.3 | 15.6 | 0.00 | 0.00 | 0.00 | 10 | 1020.3 |
| 20260508232004 | 92 | 217 | 9.6 | 13.0 | 0.00 | 0.00 | 0.00 | 9 | 1020.4 |
| 20260508231504 | 93 | 195 | 8.7 | 13.9 | 0.00 | 0.00 | 0.00 | 9 | 1020.5 |
| 20260508231003 | 92 | 210 | 7.8 | 13.0 | 0.00 | 0.00 | 0.00 | 10 | 1020.6 |
| 20260508230504 | 92 | 200 | 11.3 | 15.6 | 0.00 | 0.00 | 0.00 | 9 | 1020.5 |
| 20260508225503 | 92 | 188 | 8.7 | 14.8 | 0.00 | 0.00 | 0.00 | 9 | 1020.6 |
| 20260508225003 | 92 | 196 | 8.7 | 15.6 | 0.00 | 0.00 | 0.00 | 9 | 1020.7 |
| 20260508224503 | 92 | 194 | 9.6 | 14.8 | 0.00 | 0.00 | 0.00 | 9 | 1020.5 |
| 20260508224004 | 92 | 228 | 9.6 | 13.9 | 0.00 | 0.00 | 0.00 | 9 | 1020.6 |
| 20260508223504 | 92 | 214 | 8.7 | 15.6 | 0.00 | 0.00 | 0.00 | 9 | 1020.6 |
| 20260508223004 | 92 | 225 | 9.6 | 14.8 | 0.00 | 0.00 | 0.00 | 9 | 1020.9 |
| 20260508222504 | 92 | 199 | 6.1 | 12.2 | 0.00 | 0.00 | 0.00 | 9 | 1021.0 |
| 20260508222004 | 92 | 219 | 7.8 | 12.2 | 0.00 | 0.00 | 0.00 | 9 | 1020.9 |
| 20260508221504 | 92 | 199 | 8.7 | 15.6 | 0.00 | 0.00 | 0.00 | 9 | 1021.0 |
| 20260508221004 | 92 | 174 | 10.4 | 17.4 | 0.00 | 0.00 | 0.00 | 9 | 1021.1 |
| 20260508220503 | 92 | 203 | 9.6 | 13.9 | 0.00 | 0.00 | 0.00 | 9 | 1021.2 |
| 20260508220003 | 92 | 183 | 10.4 | 15.6 | 0.00 | 0.00 | 0.00 | 9 | 1021.1 |
| 20260508215004 | 92 | 149 | 7.0 | 13.0 | 0.00 | 0.00 | 0.00 | 9 | 1021.2 |
| 20260508214503 | 92 | 236 | 5.2 | 10.4 | 0.00 | 0.00 | 0.00 | 9 | 1021.3 |
| 20260508214003 | 92 | 197 | 5.2 | 11.3 | 0.00 | 0.00 | 0.00 | 9 | 1021.3 |
| 20260508213503 | 92 | 166 | 8.7 | 13.0 | 0.00 | 0.00 | 0.00 | 9 | 1021.4 |
| 20260508213003 | 93 | 210 | 7.0 | 11.3 | 0.00 | 0.00 | 0.00 | 9 | 1021.4 |
| 20260508212503 | 93 | 182 | 7.8 | 12.2 | 0.00 | 0.00 | 0.00 | 9 | 1021.5 |
| 20260508212003 | 92 | 148 | 5.2 | 10.4 | 0.00 | 0.00 | 0.00 | 9 | 1021.5 |
| 20260508211503 | 91 | 116 | 4.3 | 10.4 | 0.00 | 0.00 | 0.00 | 9 | 1021.7 |
| 20260508211005 | 91 | 124 | 3.5 | 7.8 | 0.00 | 0.00 | 0.00 | 10 | 1021.7 |
| 20260508210003 | 92 | 206 | 6.1 | 10.4 | 0.00 | 0.00 | 0.00 | 9 | 1021.9 |
| 20260508205504 | 92 | 232 | 4.3 | 10.4 | 0.00 | 0.00 | 0.00 | 9 | 1021.9 |
| 20260508205004 | 92 | 168 | 1.7 | 7.8 | 0.00 | 0.00 | 0.00 | 10 | 1021.9 |
| 20260508204504 | 92 | 164 | 4.3 | 10.4 | 0.00 | 0.00 | 0.00 | 10 | 1021.9 |
| 20260508204004 | 92 | 148 | 6.1 | 11.3 | 0.00 | 0.00 | 0.00 | 9 | 1021.9 |
| 20260508203503 | 92 | 200 | 5.2 | 11.3 | 0.00 | 0.00 | 0.00 | 9 | 1021.9 |
| 20260508203004 | 92 | 219 | 6.1 | 12.2 | 0.00 | 0.00 | 0.00 | 10 | 1022.1 |
| 20260508202504 | 92 | 179 | 6.1 | 11.3 | 0.00 | 0.00 | 0.00 | 10 | 1022.1 |
| 20260508202004 | 92 | 192 | 0.9 | 7.8 | 0.00 | 0.00 | 0.00 | 10 | 1022.0 |
| 20260508201503 | 92 | 287 | 4.3 | 10.4 | 0.00 | 0.00 | 0.00 | 10 | 1022.0 |
| 20260508201004 | 91 | 33 | 1.7 | 6.1 | 0.00 | 0.00 | 0.00 | 10 | 1022.2 |
| 20260508200504 | 90 | 358 | 1.7 | 5.2 | 0.00 | 0.00 | 0.00 | 11 | 1022.3 |
| 20260508200005 | 90 | 103 | 1.7 | 8.7 | 0.00 | 0.00 | 0.00 | 11 | 1022.3 |
| 20260508195503 | 90 | 16 | 5.2 | 12.2 | 0.00 | 0.00 | 0.00 | 11 | 1022.3 |
| 20260508195003 | 91 | 347 | 4.3 | 7.8 | 0.00 | 0.00 | 0.00 | 10 | 1022.4 |
| 20260508194004 | 91 | 67 | 2.6 | 5.2 | 0.00 | 0.00 | 0.00 | 11 | 1022.5 |
| 20260508193503 | 90 | 344 | 4.3 | 10.4 | 0.00 | 0.00 | 0.00 | 11 | 1022.6 |
| 20260508192503 | 90 | 113 | 0.9 | 7.0 | 0.00 | 0.00 | 0.00 | 11 | 1022.7 |
| 20260508192004 | 89 | 15 | 2.6 | 8.7 | 0.00 | 0.00 | 0.00 | 12 | 1022.7 |
| 20260508191504 | 89 | 31 | 5.2 | 10.4 | 0.00 | 0.00 | 0.00 | 12 | 1022.7 |
| 20260508191004 | 89 | 35 | 5.2 | 14.8 | 0.00 | 0.00 | 0.00 | 11 | 1022.7 |
| 20260508190504 | 89 | 22 | 6.1 | 12.2 | 0.00 | 0.00 | 0.00 | 11 | 1022.9 |
| 20260508190003 | 89 | 11 | 6.1 | 11.3 | 0.00 | 0.00 | 0.00 | 12 | 1022.9 |
| 20260508185504 | 89 | 41 | 5.2 | 10.4 | 0.00 | 0.00 | 0.00 | 12 | 1023.0 |
| 20260508185003 | 88 | 27 | 5.2 | 8.7 | 0.00 | 0.00 | 0.00 | 12 | 1023.1 |
| 20260508184503 | 88 | 6 | 7.0 | 10.4 | 0.00 | 0.00 | 0.00 | 12 | 1023.2 |
| 20260508183503 | 89 | 22 | 6.1 | 8.7 | 0.00 | 0.00 | 0.00 | 12 | 1023.2 |
| 20260508183003 | 88 | 14 | 4.3 | 10.4 | 0.00 | 0.00 | 0.00 | 12 | 1023.2 |
| 20260508182504 | 88 | 37 | 3.5 | 8.7 | 0.00 | 0.00 | 0.00 | 12 | 1022.9 |
| 20260508182004 | 88 | 13 | 6.1 | 8.7 | 0.00 | 0.00 | 0.00 | 12 | 1022.9 |
| 20260508181504 | 88 | 10 | 6.1 | 10.4 | 0.00 | 0.00 | 0.00 | 13 | 1023.0 |
| 20260508181003 | 88 | 338 | 2.6 | 7.8 | 0.00 | 0.00 | 0.00 | 13 | 1023.2 |
| 20260508180504 | 88 | 54 | 0.9 | 2.6 | 0.00 | 0.00 | 0.00 | 13 | 1023.0 |
| 20260508180004 | 87 | 33 | 3.5 | 10.4 | 0.00 | 0.00 | 0.00 | 13 | 1023.0 |
| 20260508175004 | 88 | 18 | 5.2 | 13.0 | 0.00 | 0.00 | 0.00 | 13 | 1023.0 |
| 20260508174504 | 87 | 48 | 3.5 | 7.8 | 0.00 | 0.00 | 0.00 | 13 | 1022.9 |
| 20260508174004 | 87 | 24 | 4.3 | 8.7 | 0.00 | 0.00 | 0.00 | 13 | 1022.9 |
| 20260508173503 | 87 | 24 | 2.6 | 11.3 | 0.00 | 0.00 | 0.00 | 14 | 1022.9 |
| 20260508173004 | 87 | 27 | 5.2 | 8.7 | 0.00 | 0.00 | 0.00 | 14 | 1022.9 |
| 20260508172504 | 87 | 0 | 4.3 | 8.7 | 0.00 | 0.00 | 0.00 | 13 | 1022.9 |
| 20260508172004 | 87 | 10 | 2.6 | 8.7 | 0.00 | 0.00 | 0.00 | 14 | 1022.9 |
| 20260508171504 | 86 | 351 | 3.5 | 8.7 | 0.00 | 0.00 | 0.00 | 14 | 1022.9 |
| 20260508171004 | 86 | 342 | 1.7 | 8.7 | 0.00 | 0.00 | 0.00 | 14 | 1023.0 |
| 20260508170504 | 86 | 38 | 4.3 | 8.7 | 0.00 | 0.00 | 0.00 | 14 | 1022.9 |
| 20260508170004 | 85 | 5 | 5.2 | 10.4 | 0.00 | 0.00 | 0.00 | 15 | 1023.0 |
| 20260508165504 | 86 | 21 | 4.3 | 7.8 | 0.00 | 0.00 | 0.00 | 14 | 1023.0 |
| 20260508165004 | 85 | 273 | 0.9 | 2.6 | 0.00 | 0.00 | 0.00 | 14 | 1023.0 |
| 20260508164004 | 85 | 44 | 0.9 | 1.7 | 0.00 | 0.00 | 0.00 | 12 | 1022.9 |
| 20260508163503 | 86 | 44 | 1.7 | 2.6 | 0.00 | 0.00 | 0.00 | 12 | 1022.9 |
| 20260508163004 | 85 | 74 | 0.9 | 2.6 | 0.00 | 0.00 | 0.00 | 12 | 1023.0 |
| 20260508162504 | 85 | 93 | 1.7 | 2.6 | 0.00 | 0.00 | 0.00 | 13 | 1023.0 |
| 20260508162004 | 84 | 84 | 0.9 | 5.2 | 0.00 | 0.00 | 0.00 | 13 | 1022.9 |
| 20260508161504 | 84 | 74 | 0.9 | 2.6 | 0.00 | 0.00 | 0.00 | 13 | 1023.0 |
| 20260508161003 | 84 | 109 | 0.9 | 2.6 | 0.00 | 0.00 | 0.00 | 13 | 1023.1 |
| 20260508160503 | 84 | 88 | 1.7 | 2.6 | 0.00 | 0.00 | 0.00 | 13 | 1023.1 |
| 20260508160005 | 84 | 75 | 0.9 | 2.6 | 0.00 | 0.00 | 0.00 | 13 | 1023.1 |
| 20260508155504 | 83 | 85 | 0.9 | 2.6 | 0.00 | 0.00 | 0.00 | 13 | 1023.1 |
| 20260508155003 | 83 | 76 | 0.9 | 1.7 | 0.00 | 0.00 | 0.00 | 13 | 1023.1 |
| 20260508154004 | 82 | 67 | 0.9 | 1.7 | 0.00 | 0.00 | 0.00 | 14 | 1023.1 |
| 20260508153504 | 82 | 67 | 0.9 | 1.7 | 0.00 | 0.00 | 0.00 | 13 | 1023.2 |
| 20260508153004 | 82 | 68 | 0.9 | 2.6 | 0.00 | 0.00 | 0.00 | 14 | 1023.0 |
| 20260508152504 | 83 | 129 | 0.0 | 1.7 | 0.00 | 0.00 | 0.00 | 13 | 1023.0 |
| 20260508151004 | 82 | 162 | 0.0 | 0.9 | 0.00 | 0.00 | 0.00 | 14 | 1023.0 |
| 20260508150504 | 81 | 209 | 0.0 | 0.9 | 0.00 | 0.00 | 0.00 | 14 | 1023.0 |
| 20260508150004 | 79 | 209 | 0.0 | 0.0 | 0.00 | 0.00 | 0.00 | 15 | 1022.9 |
| 20260508145504 | 79 | 209 | 0.0 | 1.7 | 0.00 | 0.00 | 0.00 | 15 | 1023.1 |
| 20260508144504 | 77 | 209 | 1.7 | 2.6 | 0.00 | 0.00 | 0.00 | 16 | 1023.1 |
| 20260508144004 | 76 | 219 | 0.9 | 2.6 | 0.00 | 0.00 | 0.00 | 16 | 1023.2 |
| 20260508143504 | 75 | 254 | 1.7 | 2.6 | 0.00 | 0.00 | 0.00 | 16 | 1023.1 |
| 20260508143004 | 75 | 249 | 1.7 | 2.6 | 0.00 | 0.00 | 0.00 | 16 | 1023.0 |
| 20260508142004 | 73 | 240 | 0.0 | 0.0 | 0.00 | 0.00 | 0.00 | 17 | 1022.9 |
| 20260508141503 | 72 | 242 | 0.0 | 0.0 | 0.00 | 0.00 | 0.00 | 17 | 1022.9 |
| 20260508141004 | 71 | 237 | 0.0 | 2.6 | 0.00 | 0.00 | 0.00 | 17 | 1022.9 |
| 20260508140504 | 71 | 221 | 1.7 | 2.6 | 0.00 | 0.00 | 0.00 | 18 | 1022.9 |
| 20260508140004 | 70 | 222 | 2.6 | 5.2 | 0.00 | 0.00 | 0.00 | 18 | 1022.8 |
| 20260508135503 | 69 | 236 | 2.6 | 6.1 | 0.00 | 0.00 | 0.00 | 18 | 1022.6 |
| 20260508134503 | 68 | 238 | 2.6 | 6.1 | 0.00 | 0.00 | 0.00 | 19 | 1022.6 |
| 20260508134003 | 68 | 250 | 2.6 | 5.2 | 0.00 | 0.00 | 0.00 | 19 | 1022.6 |
| 20260508133504 | 67 | 225 | 2.6 | 4.3 | 0.00 | 0.00 | 0.00 | 19 | 1022.5 |
| 20260508132504 | 66 | 239 | 0.0 | 0.0 | 0.00 | 0.00 | 0.00 | 20 | 1022.3 |
| 20260508132004 | 65 | 236 | 0.0 | 0.0 | 0.00 | 0.00 | 0.00 | 20 | 1022.2 |
| 20260508131504 | 65 | 227 | 0.0 | 0.0 | 0.00 | 0.00 | 0.00 | 21 | 1022.2 |
| 20260508131003 | 64 | 234 | 0.0 | 0.0 | 0.00 | 0.00 | 0.00 | 21 | 1022.2 |
| 20260508130503 | 64 | 225 | 0.0 | 0.0 | 0.00 | 0.00 | 0.00 | 22 | 1022.1 |
| 20260508130004 | 64 | 225 | 0.0 | 0.0 | 0.00 | 0.00 | 0.00 | 21 | 1022.0 |
| 20260508125504 | 64 | 225 | 0.0 | 0.0 | 0.00 | 0.00 | 0.00 | 21 | 1022.0 |
| 20260508125004 | 64 | 225 | 0.0 | 0.0 | 0.00 | 0.00 | 0.00 | 21 | 1021.9 |
| 20260508124503 | 64 | 225 | 0.0 | 0.0 | 0.00 | 0.00 | 0.00 | 21 | 1021.8 |
| 20260508124004 | 64 | 225 | 0.0 | 0.0 | 0.00 | 0.00 | 0.00 | 22 | 1021.8 |
| 20260508123504 | 64 | 225 | 0.0 | 0.0 | 0.00 | 0.00 | 0.00 | 22 | 1021.7 |
| 20260508122504 | 65 | 225 | 0.0 | 0.0 | 0.00 | 0.00 | 0.00 | 21 | 1021.6 |
| 20260508122003 | 65 | 226 | 0.0 | 0.0 | 0.00 | 0.00 | 0.00 | 21 | 1021.8 |
| 20260508121504 | 66 | 227 | 0.0 | 0.0 | 0.00 | 0.00 | 0.00 | 21 | 1021.7 |
| 20260508121004 | 66 | 230 | 0.0 | 0.0 | 0.00 | 0.00 | 0.00 | 21 | 1021.7 |
| 20260508120005 | 66 | 229 | 0.0 | 0.0 | 0.00 | 0.00 | 0.00 | 21 | 1021.6 |
| 20260508115504 | 66 | 236 | 0.0 | 0.0 | 0.00 | 0.00 | 0.00 | 21 | 1021.6 |
| 20260508115004 | 65 | 229 | 0.0 | 0.0 | 0.00 | 0.00 | 0.00 | 21 | 1021.6 |
| 20260508114503 | 65 | 227 | 0.0 | 0.0 | 0.00 | 0.00 | 0.00 | 22 | 1021.4 |
| 20260508114004 | 64 | 221 | 0.0 | 0.0 | 0.00 | 0.00 | 0.00 | 22 | 1021.4 |
| 20260508113005 | 64 | 202 | 0.0 | 0.0 | 0.00 | 0.00 | 0.00 | 23 | 1021.5 |
| 20260508112004 | 62 | 188 | 0.0 | 0.0 | 0.00 | 0.00 | 0.00 | 24 | 1021.4 |
| 20260508111003 | 62 | 188 | 0.0 | 0.0 | 0.00 | 0.00 | 0.00 | 25 | 1021.4 |
| 20260508110504 | 61 | 180 | 0.0 | 0.0 | 0.00 | 0.00 | 0.00 | 25 | 1021.5 |
| 20260508110004 | 62 | 180 | 0.0 | 0.0 | 0.00 | 0.00 | 0.00 | 25 | 1021.4 |
| 20260508105004 | 62 | 180 | 0.0 | 0.0 | 0.00 | 0.00 | 0.00 | 25 | 1021.4 |
| 20260508104004 | 63 | 180 | 0.0 | 0.0 | 0.00 | 0.00 | 0.00 | 25 | 1021.5 |
| 20260508103503 | 63 | 180 | 0.0 | 0.0 | 0.00 | 0.00 | 0.00 | 24 | 1021.5 |
| 20260508102504 | 64 | 180 | 0.0 | 0.0 | 0.00 | 0.00 | 0.00 | 24 | 1021.6 |
| 20260508102004 | 65 | 180 | 0.0 | 0.0 | 0.00 | 0.00 | 0.00 | 23 | 1021.5 |
| 20260508101504 | 66 | 204 | 0.0 | 0.0 | 0.00 | 0.00 | 0.00 | 23 | 1021.5 |
| 20260508101004 | 67 | 242 | 0.0 | 0.0 | 0.00 | 0.00 | 0.00 | 22 | 1021.4 |
| 20260508100504 | 69 | 273 | 0.0 | 0.0 | 0.00 | 0.00 | 0.00 | 21 | 1021.5 |
| 20260508100004 | 71 | 273 | 0.0 | 0.0 | 0.00 | 0.00 | 0.00 | 20 | 1021.6 |
| 20260508095504 | 72 | 273 | 0.0 | 0.0 | 0.00 | 0.00 | 0.00 | 19 | 1021.6 |
| 20260508094505 | 73 | 273 | 0.0 | 0.0 | 0.00 | 0.00 | 0.00 | 19 | 1021.6 |
| 20260508094009 | 73 | 285 | 0.0 | 0.0 | 0.00 | 0.00 | 0.00 | 19 | 1021.6 |
| 20260508093504 | 73 | 250 | 0.0 | 0.0 | 0.00 | 0.00 | 0.00 | 19 | 1021.6 |
| 20260508093004 | 73 | 253 | 0.0 | 0.0 | 0.00 | 0.00 | 0.00 | 19 | 1021.6 |
| 20260508092503 | 73 | 259 | 0.0 | 0.0 | 0.00 | 0.00 | 0.00 | 19 | 1021.7 |
| 20260508092004 | 73 | 264 | 0.0 | 0.0 | 0.00 | 0.00 | 0.00 | 20 | 1021.7 |
| 20260508091504 | 72 | 274 | 0.0 | 0.0 | 0.00 | 0.00 | 0.00 | 20 | 1021.7 |
| 20260508091004 | 72 | 259 | 0.0 | 0.0 | 0.00 | 0.00 | 0.00 | 20 | 1021.7 |
| 20260508090504 | 72 | 262 | 0.0 | 0.0 | 0.00 | 0.00 | 0.00 | 21 | 1021.8 |
| 20260508085504 | 72 | 257 | 0.0 | 0.0 | 0.00 | 0.00 | 0.00 | 21 | 1021.9 |
| 20260508085005 | 73 | 243 | 0.0 | 0.0 | 0.00 | 0.00 | 0.00 | 20 | 1022.0 |
| 20260508084004 | 74 | 298 | 0.0 | 0.0 | 0.00 | 0.00 | 0.00 | 20 | 1022.1 |
| 20260508083504 | 73 | 323 | 0.0 | 0.0 | 0.00 | 0.00 | 0.00 | 21 | 1022.1 |
| 20260508083003 | 73 | 275 | 0.0 | 0.0 | 0.00 | 0.00 | 0.00 | 21 | 1022.1 |